This is the latest recevied weather packets stored in our database for station/object SR8WXL-13. If no packets are shown the sender has not sent any weather packets the latest 10 day(s).
| Time | Temp. | Humidity | Pressure | Rain* | Wind** | Luminosity | Snow |
|---|---|---|---|---|---|---|---|
| 1787906199 | 22.78° C | 46% | 1035.4 hPa | 0 mm | - | - | - |
| 1787905434 | 22.22° C | 47% | 1034.6 hPa | 0 mm | - | - | - |
| 1787904671 | 22.22° C | 47% | 1035.3 hPa | 0 mm | - | - | - |
| 1787903854 | 22.22° C | 49% | 1035.5 hPa | 0 mm | - | - | - |
| 1787902969 | 21.11° C | 50% | 1035.8 hPa | 0 mm | - | - | - |
| 1787902203 | 21.11° C | 51% | 1035.9 hPa | 0 mm | - | - | - |
| 1787901348 | 21.11° C | 52% | 1035.9 hPa | 0 mm | - | - | - |
| 1787900629 | 21.11° C | 51% | 1036 hPa | 0 mm | - | - | - |
| 1787899734 | 20° C | 54% | 1036 hPa | 0 mm | - | - | - |
| 1787898934 | 20° C | 55% | 1036.2 hPa | 0 mm | - | - | - |
| 1787898084 | 20° C | 57% | 1036.1 hPa | 0 mm | - | - | - |
| 1787897230 | 18.89° C | 63% | 1036.2 hPa | 0 mm | - | - | - |
| 1787896394 | 17.22° C | 67% | 1036.2 hPa | 0 mm | - | - | - |
| 1787895674 | 16.11° C | 71% | 1036 hPa | 0 mm | - | - | - |
| 1787894874 | 15° C | 74% | 1036.1 hPa | 0 mm | - | - | - |
| 1787894155 | 13.89° C | 78% | 1036.2 hPa | 0 mm | - | - | - |
| 1787893313 | 12.78° C | 82% | 1036.1 hPa | 0 mm | - | - | - |
| 1787892500 | 11.11° C | 89% | 1036 hPa | 0 mm | - | - | - |
| 1787891764 | 10° C | 98% | 1036 hPa | 0 mm | - | - | - |
| 1787891000 | 7.78° C | 99% | 1035.7 hPa | 0 mm | - | - | - |
| 1787890209 | 7.22° C | 99% | 1035.8 hPa | 0 mm | - | - | - |
| 1787889414 | 7.22° C | 99% | 1035.6 hPa | 0 mm | - | - | - |
| 1787888609 | 7.22° C | 99% | 1035.8 hPa | 0 mm | - | - | - |
| 1787887782 | 7.22° C | 99% | 1035.8 hPa | 0 mm | - | - | - |
| 1787886929 | 7.22° C | 99% | 1036 hPa | 0 mm | - | - | - |
* Rain latest hour (hover to see other rain measurements)
** Current wind speed in m/s (hover to see current wind gust speed)